COSMOS 1691 DEB, 43317

Orbit data source: Space-Track

COSMOS 1691 DEB, 43317 is space debris in LEO originally from a launch on Wed, 09 Oct 1985 UTC launched from the Plesetsk Missile And Space Complex (PKMTR). Debris objects in space refer to the collection of defunct objects orbiting the Earth. Examples of debris include non-operational satellites, rocket bodies, and fragments generated from explosions, collisions, or faulty payload assembly.

Loading next visibility...
Identifier
43317, 1985-094AB
Orbit
LEO
Country
Flag of CISCIS
Related business
Manufacturer
Unknown
Mission
Spacecraft
Bus & Motor
Unknown
Mass
Unknown
Launch date (UTC)
1985-10-09 (41 years ago)
Launch vehicle
Unknown
Launch site
Plesetsk Missile And Space Complex (PKMTR)
Object type
Payload
Rocket body
Debris
Shape & HBR
Unknown shape, 0.1 m
Radar Cross Section
Small (<0.1 m²)

Expand to show TLE details & history
Last TLE update: 6 days ago

TLE from 6 days ago
0 COSMOS 1691 DEB
1 43317U 85094AB  26121.61797204  .00000446  00000-0  19947-2 0  9998
2 43317  82.5542  81.0273 0022794  74.1199 286.2411 12.76811603579316
Epoch: 2026-05-01T14:49Z
TLE epoch observation values (Epoch: 2026-05-01T14:49:52.784Z)
Latitude
0.00004°
Longitude
-0.99027°
Altitude
1,352.173 km
Speed
7.184 km/s
True Right ascension
05h 24m 06s
True Declination
0° 00' 00"
Sunlit
Object was in daylight at epoch
Visualization orbit readout
Latitude
Unknown
Longitude
Unknown
Altitude
Unknown
Speed
Unknown
Apparent Right ascension
Unknown
Apparent Declination
Unknown
Sunlit
N/A
Visualization observer readout
Local Sidereal Time
19:52:31
Azimuth
Unknown
Elevation
Unknown
Doppler factor
Unknown
Orbital elements
Apogee altitude
1,369.236 km
Perigee altitude
1,333.998 km
Semi-major axis
7,729.754 km
Eccentricity
0.00228
Inclination
82.5542°
RAAN
81.0273°
Arg. of periapsis
74.1199°
True anomaly
285.99012°
Mean anomaly
286.2411°
Eccentric anomaly
286.11563°
Mean motion
3.1937 °/min
Orbital period
112.72 mins
BSTAR
0.0019947
Loading maneuver chart data...
Computing Atmospheric mass density...
Loading historical data...
Loading historical data...
Loading historical data...
Loading historical data...
Loading historical data...
Loading historical data...
Loading historical data...

Documentation

Showing up to 5 results
|